This is the latest recevied weather packets stored in our database for station/object WB4ROX. If no packets are shown the sender has not sent any weather packets the latest 1 day(s).
| Time | Temp. | Humidity | Pressure | Rain* | Wind** | Luminosity | Snow |
|---|---|---|---|---|---|---|---|
| 1778048970 | 12.22° C | 66% | 1016.1 hPa | 0 mm | 1.79 m/s, 178° | 0 W/m² | - |
| 1778048668 | 12.22° C | 66% | 1016.3 hPa | 0 mm | 2.24 m/s, 287° | 0 W/m² | - |
| 1778048363 | 12.22° C | 66% | 1016.1 hPa | 0 mm | 1.34 m/s, 42° | 0 W/m² | - |
| 1778048060 | 12.22° C | 67% | 1016 hPa | 0 mm | 2.68 m/s, 277° | 0 W/m² | - |
| 1778047758 | 12.22° C | 67% | 1016.1 hPa | 0 mm | 2.24 m/s, 263° | 0 W/m² | - |
| 1778047456 | 12.22° C | 67% | 1015.9 hPa | 0 mm | 1.34 m/s, 269° | 0 W/m² | - |
| 1778047153 | 12.22° C | 67% | 1016 hPa | 0 mm | 1.79 m/s, 262° | 0 W/m² | - |
| 1778046850 | 12.22° C | 67% | 1016.7 hPa | 0 mm | 2.68 m/s, 61° | 0 W/m² | - |
| 1778046546 | 12.22° C | 68% | 1016.7 hPa | 0 mm | 1.79 m/s, 310° | 0 W/m² | - |
| 1778046244 | 11.67° C | 68% | 1016.6 hPa | 0 mm | 1.34 m/s, 25° | 0 W/m² | - |
| 1778045940 | 11.67° C | 68% | 1016.4 hPa | 0 mm | 1.79 m/s, 267° | 0 W/m² | - |
| 1778045638 | 11.67° C | 68% | 1016.4 hPa | 0 mm | 2.24 m/s, 286° | 0 W/m² | - |
| 1778045336 | 11.67° C | 68% | 1016.6 hPa | 0 mm | 1.34 m/s, 71° | 0 W/m² | - |
| 1778045034 | 11.67° C | 68% | 1016.9 hPa | 0 mm | 0.89 m/s, 13° | 0 W/m² | - |
| 1778044732 | 11.67° C | 68% | 1016.7 hPa | 0 mm | 0.89 m/s, 265° | 0 W/m² | - |
| 1778044428 | 11.67° C | 68% | 1016.8 hPa | 0 mm | 2.24 m/s, 270° | 0 W/m² | - |
| 1778044125 | 11.67° C | 68% | 1016.7 hPa | 0 mm | 1.79 m/s, 95° | 0 W/m² | - |
| 1778043823 | 11.67° C | 68% | 1016.8 hPa | 0 mm | 1.79 m/s, 34° | 0 W/m² | - |
| 1778043520 | 11.67° C | 68% | 1016.7 hPa | 0 mm | 3.13 m/s, 285° | 0 W/m² | - |
| 1778043216 | 11.67° C | 68% | 1016.9 hPa | 0 mm | 0.89 m/s, 241° | 0 W/m² | - |
| 1778042913 | 11.67° C | 68% | 1016.6 hPa | 0 mm | 2.68 m/s, 337° | 0 W/m² | - |
| 1778042611 | 11.67° C | 68% | 1016.8 hPa | 0 mm | 2.24 m/s, 96° | 0 W/m² | - |
| 1778042308 | 11.67° C | 68% | 1016.9 hPa | 0 mm | 0.89 m/s, 121° | 0 W/m² | - |
| 1778042005 | 11.67° C | 67% | 1016.9 hPa | 0 mm | 1.79 m/s, 317° | 0 W/m² | - |
| 1778041703 | 11.67° C | 67% | 1016.9 hPa | 0 mm | 0.89 m/s, 86° | 0 W/m² | - |
* Rain latest hour (hover to see other rain measurements)
** Current wind speed in m/s (hover to see current wind gust speed)